TITAN 3C TRANSTAGE DEB, 1961

Orbit data source: Space-Track

TITAN 3C TRANSTAGE DEB, 1961 is space debris in LEO originally from a launch on Fri, 15 Oct 1965 UTC launched from the Air Force Eastern Test Range (AFETR). Debris objects in space refer to the collection of defunct objects orbiting the Earth. Examples of debris include non-operational satellites, rocket bodies, and fragments generated from explosions, collisions, or faulty payload assembly.

Loading next visibility...
Identifier
1961, 1965-082GW
Orbit
LEO
Last TLE update
14 hours ago
Origin
Manufacturer
Unknown
Mission
Spacecraft
Bus & Motor
Unknown
Mass
Unknown
Launch date (UTC)
1965-10-15 (60 years ago)
Launch vehicle
Unknown
Launch site
Air Force Eastern Test Range (AFETR)
Object type
Payload
Rocket body
Debris
Shape & HBR
Unknown
Radar Cross Section
Small (<0.1 m²)

Expand to show TLE details & history

TLE from 14 hours ago
0 TITAN 3C TRANSTAGE DEB
1 01961U 65082GW  25189.69454977  .00003849  00000-0  22365-3 0  9999
2 01961  31.8594 334.7594 0002995  88.0109 272.0888 15.10599885192070
Epoch: 2025-07-08T16:40Z
TLE epoch observation values (Epoch: 2025-07-08T16:40:09.1Z)
Latitude
-0.00001°
Longitude
157.83562°
Altitude
532.888 km
Speed
7.599 km/s
True Right ascension
22h 19m 02s
True Declination
0° 00' 00"
Sunlit
Object was in full shadow at epoch
Visualization orbit readout
Latitude
18.81358°
Longitude
-172.97546°
Altitude
531.288 km
Speed
7.602 km/s
Apparent Right ascension
03h 03m 23s
Apparent Declination
-14° 40' 42"
Sunlit
Object is in daylight
Visualization observer readout
Local Sidereal Time
19:15:52
Azimuth
84.288° E
Elevation
-29.872°
Doppler factor
1
Orbital elements
Apogee altitude
540.155 km
Perigee altitude
536.012 km
Semi-major axis
6,916.221 km
Eccentricity
0.0003
Inclination
31.8594°
RAAN
334.7594°
Arg. of periapsis
88.0109°
True anomaly
Unknown
Mean anomaly
272.0888°
Eccentric anomaly
Unknown
Mean motion
3.77346 °/min
Orbital period
95.4 mins
BSTAR
0.00022365
Loading maneuver chart data...
Loading SW <> Apogee altitude chart data...

TITAN 3C TRANSTAGE DEB Visibility forecast

Observer location: undefined°, undefined°

Span
Click to sort rows by Start time (UTC) header in descending order
Start Az.
Max El. time (UTC)
Max El. Az.
Max El.
End time (UTC)
End Az.
4 mins2025-07-09 13:32:25.883Z191.764° SSW2025-07-09 13:34:25.883Z159.708° S14.688°2025-07-09 13:36:25.883Z128.875° SE
5 mins2025-07-09 15:12:25.883Z219.026° SW2025-07-09 15:14:25.883Z179.33° S22.89°2025-07-09 15:17:25.883Z124.362° SE
4 mins2025-07-09 16:53:25.883Z220.379° SW2025-07-09 16:54:25.883Z200.939° SSW20.02°2025-07-09 16:57:25.883Z145.513° SSE
|